Location: Newark
(46.9000°N, 28.3500°E)
Time: 14:52:15
(UTC+00:00)

Explorer 7 - Pass Details

Date: 26 August 2019
Orbit: 485 x 680 km, 50.3° (Epoch: 18 September)

Event Time Altitude Azimuth Distance (km) Brightness Sun altitude
Rises 08:08:49 0° 262° (W) 3,008 10.3 45.6°
Reaches altitude 10° 08:11:15 10° 266° (W) 2,079 9.6 45.9°
Maximum altitude 08:16:01 64° 348° (NNW) 713 7.8 46.5°
Drops below altitude 10° 08:20:33 10° 70° (ENE) 1,979 10.0 47.0°
Sets 08:22:49 0° 74° (ENE) 2,852 10.7 47.2°
